Location: Taukkyan
(23.1052°N, 94.0030°E)
Time: 11:38:29
(UTC+00:00)

Cosmos 921 Rocket - Pass Details

Date: 06 July 2020
Orbit: 572 x 631 km, 75.8° (Epoch: 14 August)

Event Time Altitude Azimuth Distance (km) Brightness Sun altitude
Rises 21:37:37 0° 357° (N) 2,877 6.9 -18.1°
Reaches altitude 10° 21:39:59 10° 4° (N) 1,961 6.2 -17.6°
Maximum altitude 21:44:06 41° 75° (ENE) 873 4.3 -16.8°
Drops below altitude 10° 21:48:09 10° 146° (SSE) 1,918 5.6 -16.1°
Sets 21:50:26 0° 154° (SSE) 2,807 6.4 -15.6°
